Starlink 31787

operational
NORAD ID: 59650 Int'l Des: 2024-082 Owner: SPXS Country: US Constellation: starlink
LEOCIRCULAR

关于 Starlink 31787

正在加载描述...

实时位置

正在加载3D地球...

即将过境

高度历史

Altitude vs Time

uPlot chart will show altitude changes over time

两行轨道根数

1 59650U 24082V 25259.11934394 .00000164 00000-0 15493-4 0 9995
2 59650 43.0050 45.6885 0000828 277.8428 82.2330 15.27574710 78317
Epoch: Sep 16, 2025 • Age: 9 hours

当前状态

高度 494.8 km
速度 7.62 km/s
星下点 -40.45°S, 116.18°E
发射日期 May 3, 2024
运行时间 1.3 years
类型 internet

技术详情

分类 Payload
质量 730.00 kg
干质量 700.00 kg
总质量 730.00 kg
长度 0.30 m
直径 4.10 m
跨度 29.00 m
形状 Box + pan
制造商 SPXS
平台类型 Starlink V2M
阶段状态 In Orbit
所有者/国家 SPXS/US

大型星座

Loading constellations...